アトラス彗星

C/2024 G2 ( ATLAS )

English version
Home page
Updated on August 30, 2025

---------------------------------------------------------------------

・ プロフィール

発見日 2024年4月8日
発見光度 18.6等
発見者 Asteroid Terrestrial-Impact Last Alert System (ATLAS) search program

・ 写真集

・ 軌道要素

Epoch 2025 May 5.0 TT = JDT 2460800.5
T 2025 June 13.52410 TT                                 Pike
q   5.3482482            (2000.0)            P               Q
z  +0.0013571      Peri.  328.73588     -0.88645414     -0.44513658
 +/-0.0000033      Node   171.39585     +0.04179037     +0.19565146
e   0.9927417      Incl.  122.12663     -0.46092583     +0.87382717
From 361 observations 2024 Apr. 8-2025 July 25, mean residual 0".5.

・ 光度変化

        m1 = 6.5 + 5 logΔ + 10.0 log r

---------------------------------------------------------------------

軌道要素はM.P.E.C. 2025-O159に掲載されたものです。
光度グラフはComet for Windowsで作成したものです。

---------------------------------------------------------------------

Copyright(C) Seiichi Yoshida (comet@aerith.net). All rights reserved.